SCP
0 0 0 0 0 0 0 0 0 0 0 0 0 0 0 0 0 0 0 0 0 0 0 0 0 0 0 0 0 0 0 0 0 0 0 0 -0 -0 -0 -0 -0 -0 -0
0 0 0 0 0 0 0 0 0 0 0 0 0 0 0 0 0 0 0 0 0 0 0 0 0 0 0 0 0 0 0 0 0 0 0 0 -0 -0 -0 -0 -0 0 0
0 0 0 0 0 0 0 0 0 0 0 0 0 0 0 0 0 0 0 0 0 0 0 0 0 0 0 0 0 0 0 0 0 0 0 0 -0 -0 -0 -0 -0 0 0
0 0 0 0 0 0 0 0 0 0 0 0 0 0 0 0 0 0 0 0 0 0 0 0 0 0 0 0 0 0 0 0 0 0 0 0 0 0 0 0 0 0 0
0 0 0 0 0 0 0 0 0 0 0 0 0 0 0 0 0 0 0 0 0 0 0 0 0 0 0 0 0 0 0 0 0 0 0 0 0 0 0 0 0 0 0
0 0 0 0 0 0 0 0 0 0 0 0 0 0 0 0 0 0 0 0 0 0 0 0 0 0 0 0 0 0 0 0 0 0 0 0 0 0 0 0 0 0 0
0 0 0 0 0 0 0 0 0 0 0 0 0 0 0 0 0 0 0 0 0 0 0 0 0 0 0 0 0 0 0 0 0 0 0 0 0 0 0 0 0 0 0
0 0 0 0 0 0 0 0 0 0 0 0 0 0 0 0 0 0 0 0 0 0 0 0 0 0 0 0 0 0 0 0 0 0 0 0 0 0 0 0 0 0 0
0 0 0 0 0 0 0 0 0 0 0 0 0 0 0 0 0 0 0 0 0 0 0 0 0 0 0 0 0 0 0 0 0 0 0 0 0 0 0 0 0 0 0
0 0 0 0 0 0 0 0 0 0 0 0 0 0 0 0 0 0 0 0 0 0 0 0 0 0 0 0 0 0 0 0 0 0 0 0 0 0 0 0 0 0 0
0 0 0 0 0 0 0 0 0 0 0 0 0 0 0 0 0 0 0 0 0 0 0 0 0 0 0 0 0 0 0 0 0 0 0 0 0 0 0 0 0 0 0
0 0 0 0 0 0 0 0 0 0 0 0 0 0 0 0 0 0 0 0 0 0 0 0 0 0 0 0 0 0 0 0 0 0 0 0 0 0 0 0 0 0 0
0 0 0 0 0 0 0 0 0 0 0 0 0 0 0 0 0 0 0 0 0 0 0 0 0 0 0 0 0 0 0 0 0 0 0 0 0 0 0 0 0 0 0
0 0 0 0 0 0 0 0 0 0 0 0 0 0 0 0 0 0 0 0 0 0 0 0 0 0 0 0 0 0 0 0 0 0 0 0 0 0 0 0 0 0 0
0 0 0 0 0 0 0 0 0 0 0 0 0 0 0 0 0 0 0 0 0 0 0 0 0 0 0 0 0 0 0 0 0 0 0 0 0 0 0 0 0 0 0
0 0 0 0 0 0 0 0 0 0 0 0 0 0 0 0 0 0 0 0 0 0 0 0 0 0 0 0 0 0 0 0 0 0 0 0 0 0 0 0 0 0 0
0 0 0 0 0 0 0 0 0 0 0 0 0 0 0 0 0 0 0 0 0 0 0 0 0 0 0 0 0 0 0 0 0 0 0 0 0 0 0 0 0 0 0
0 0 0 0 0 0 0 0 0 0 0 0 0 0 0 0 0 0 0 0 0 0 0 0 0 0 0 0 0 0 0 0 0 0 0 0 0 0 0 0 0 0 0
0 0 0 0 0 0 0 0 0 0 0 0 0 0 0 0 0 0 0 0 0 0 0 0 0 0 0 0 0 0 0 0 0 0 0 0 0 0 0 0 0 0 0
0 0 0 0 0 0 0 0 0 0 0 0 0 0 0 0 0 0 0 0 0 0 0 0 0 0 0 0 0 0 0 0 0 0 0 0 0 0 0 0 0 0 0
0 0 0 0 0 0 0 0 0 0 0 0 0 0 0 0 0 0 0 0 0 0 0 0 0 0 0 0 0 0 0 0 0 0 0 0 0 0 0 0 0 0 0
0 0 0 0 0 0 0 0 0 0 0 0 0 0 0 0 0 0 0 0 0 0 0 0 0 0 0 0 0 0 0 0 0 0 0 0 0 0 0 0 0 0 0
0 0 0 0 0 0 0 0 0 0 0 0 0 0 0 0 0 0 0 0 0 0 0 0 0 0 0 0 0 0 0 0 0 0 0 0 0 0 0 0 0 0 0
0 0 0 0 0 0 0 0 0 0 0 0 0 0 0 0 0 0 0 0 0 0 0 0 0 0 0 0 0 0 0 0 0 0 0 0 0 0 0 0 0 0 0
0 0 0 0 0 0 0 0 0 0 0 0 0 0 0 0 0 0 0 0 0 0 0 0 0 0 0 0 0 0 0 0 0 0 0 0 0 0 0 0 0 0 0
0 0 0 0 0 0 0 0 0 0 0 0 0 0 0 0 0 0 0 0 0 0 0 0 0 0 0 0 0 0 0 0 0 0 0 0 0 0 0 0 0 0 0
Wind_Speed
8 7 8 7 7 7 7 7 7 6 6 6 5 4 4 3 2 2 2 2 2 2 2 2 3 3 2 3 3 3 3 4 10 13 8 7 10 12 13 12 12 11 12
8 8 8 8 7 7 7 7 7 7 6 6 5 4 4 3 2 1 1 0 1 2 2 2 3 3 3 3 3 3 3 4 7 15 14 9 9 10 12 14 13 13 10
9 9 8 8 8 8 8 7 7 7 6 6 5 5 4 3 2 2 1 2 2 3 3 3 4 4 4 3 4 4 4 6 5 10 15 11 9 9 12 13 12 9 12
10 10 10 10 9 8 8 8 7 7 7 6 5 5 4 4 3 3 3 3 3 3 3 4 4 4 4 4 5 5 5 6 6 9 12 12 10 9 9 11 13 9 10
12 11 11 9 9 8 8 8 7 7 7 6 6 5 5 4 4 4 3 3 4 4 4 5 5 7 9 8 7 5 5 5 6 9 12 12 11 11 11 11 14 13 9
13 12 10 10 10 9 9 8 8 7 6 6 6 6 6 5 9 10 7 4 5 5 6 5 5 6 9 13 14 14 13 9 7 9 12 14 15 14 13 13 14 16 15
12 11 10 11 11 10 10 9 9 9 7 7 7 7 7 9 13 12 12 6 5 6 6 6 6 5 5 7 11 15 14 17 18 15 16 16 17 16 17 18 16 17 17
12 11 11 11 11 10 10 10 9 8 8 8 9 9 8 10 14 14 13 7 6 7 7 7 7 6 7 9 9 9 10 11 15 13 14 16 16 16 17 18 19 18 16
13 12 12 12 11 11 12 11 9 8 9 9 7 8 9 10 14 14 13 5 6 8 8 7 7 7 12 15 10 9 11 12 16 20 23 23 28 28 24 14 12 13 14
14 13 11 11 12 13 13 11 8 8 9 8 8 8 9 8 13 15 15 5 6 7 6 7 9 11 13 14 8 7 10 12 11 12 15 18 17 18 22 14 11 11 12
9 9 9 10 11 11 9 7 7 7 6 7 7 7 7 8 12 17 17 7 7 6 5 5 6 13 14 15 13 7 12 13 7 8 10 11 11 10 11 11 11 11 12
8 8 9 9 8 7 8 7 7 7 7 7 6 6 6 7 11 15 19 18 14 8 7 6 7 13 15 15 11 12 17 12 4 6 7 8 9 9 10 12 13 13 13
8 8 7 7 6 7 8 8 6 6 6 7 7 8 7 7 9 17 18 19 19 11 7 12 14 16 14 9 11 14 9 3 4 6 7 9 9 10 11 11 12 12 13
8 7 7 7 6 6 5 6 7 8 8 7 8 8 6 5 5 6 6 7 11 11 8 8 13 14 11 8 6 7 4 4 5 6 8 9 9 9 9 9 10 10 11
7 7 6 6 6 6 6 6 7 7 8 8 6 5 5 5 7 12 7 6 6 7 6 3 3 3 3 3 4 4 4 4 5 5 6 8 9 9 9 8 8 9 10
6 6 5 5 5 5 4 4 11 11 13 15 13 9 7 10 12 15 16 17 18 18 10 5 5 5 5 5 4 4 4 4 5 5 5 7 8 9 10 9 9 9 10
6 6 5 5 5 5 4 4 3 6 11 13 14 14 13 13 15 16 17 19 20 19 10 6 5 5 5 5 4 4 4 4 4 5 6 6 7 8 9 10 10 10 10
4 5 5 4 4 4 4 3 3 3 2 3 6 11 13 14 15 16 17 16 11 9 5 5 5 5 5 5 5 5 4 4 4 5 5 6 6 8 9 9 9 10 11
4 4 3 4 3 3 3 2 2 2 2 2 1 4 8 11 14 15 15 8 7 6 5 5 5 5 5 5 5 4 4 5 5 5 5 6 6 7 8 9 10 12 12
4 6 5 4 3 3 2 2 2 1 2 2 2 2 2 2 3 5 5 5 6 5 4 5 5 5 5 5 4 4 4 5 5 5 5 5 6 6 8 10 10 10 10
4 4 5 4 3 3 2 2 1 1 2 2 3 5 8 4 4 5 5 6 6 6 5 4 4 5 5 5 4 5 6 5 5 5 5 5 6 6 7 8 9 9 10
4 4 3 3 2 2 2 1 1 2 2 3 3 5 11 5 4 5 5 6 5 5 4 4 4 4 5 5 5 5 5 6 6 5 5 5 5 6 7 8 8 9 9
4 4 3 3 2 2 1 1 2 2 3 3 4 4 4 4 5 5 6 5 5 4 3 4 5 5 5 5 5 5 6 7 5 5 5 5 6 6 7 8 9 9 9
3 3 3 3 2 2 2 2 3 3 4 4 4 4 5 5 5 6 6 6 5 5 4 5 6 8 9 6 5 5 6 7 6 5 7 7 8 8 7 7 8 8 8
2 2 2 2 2 2 3 3 3 4 4 4 4 5 5 5 5 6 6 5 6 6 7 6 6 7 10 11 9 7 10 12 10 6 6 7 9 9 8 8 7 7 7
2 2 2 2 2 3 3 4 4 4 4 5 5 5 5 5 5 6 5 5 6 6 6 6 8 9 10 9 10 11 13 14 14 13 9 8 9 8 7 6 7 6 6
Wind_Direction
147 143 139 139 138 135 135 139 139 135 135 135 133 127 121 112 94 82 74 50 15 339 333 343 324 320 322 320 312 302 297 298 292 295 302 317 323 320 315 310 310 307 308
153 148 148 146 146 146 148 147 143 142 143 144 143 143 145 139 131 133 153 229 281 293 304 310 302 310 308 299 300 304 299 290 289 298 305 315 315 313 310 312 312 311 311
157 157 158 159 160 161 158 153 151 150 150 152 158 165 166 165 171 184 199 245 259 267 274 279 283 292 289 289 296 292 288 293 289 295 300 309 310 311 310 306 305 307 313
165 168 172 173 172 167 161 159 159 159 161 168 174 174 175 179 191 203 213 237 253 260 260 260 264 268 275 286 291 282 286 289 292 294 297 304 307 305 303 310 309 305 305
174 179 182 175 169 164 163 163 163 166 170 171 172 179 185 192 203 201 214 235 247 258 258 255 257 266 276 281 281 275 281 282 287 292 296 300 303 309 309 308 304 304 296
180 185 179 172 170 170 168 164 165 170 171 173 184 189 200 209 217 219 221 231 247 256 263 261 260 262 274 285 291 293 291 290 291 290 293 294 299 302 302 300 301 301 301
182 182 178 174 174 175 169 168 177 181 180 189 196 198 210 220 224 226 231 234 242 251 259 263 267 266 269 278 286 291 293 291 290 289 290 291 295 297 297 295 291 290 292
183 184 180 176 178 173 171 182 188 184 190 198 204 205 211 223 228 230 234 236 241 248 249 251 260 266 269 279 279 280 283 287 288 288 285 288 292 294 292 293 295 293 290
188 188 184 180 178 178 186 194 192 188 196 202 202 202 211 225 228 231 233 224 241 251 251 249 252 257 270 281 286 286 291 293 298 299 300 301 302 304 303 301 297 295 296
193 191 184 181 184 190 196 195 188 191 199 198 208 205 211 219 228 234 233 219 236 247 249 251 252 259 267 278 282 285 294 300 306 309 309 307 305 303 303 298 298 297 299
182 175 177 185 192 195 191 184 179 184 187 199 211 212 213 217 231 236 235 222 224 237 241 242 249 265 273 281 291 289 292 305 320 318 310 305 304 303 303 304 306 305 302
161 171 181 186 186 181 178 178 174 176 188 203 213 228 228 225 226 237 239 237 231 225 234 241 250 265 274 284 294 296 303 316 321 305 301 302 304 305 307 308 305 300 291
163 175 176 171 171 168 173 175 171 178 194 206 211 229 234 222 228 233 237 240 241 237 234 245 255 264 276 288 293 296 307 305 289 291 295 298 301 302 306 304 302 298 292
167 170 164 166 169 166 171 175 182 191 201 209 214 226 230 219 208 214 226 242 249 253 259 258 263 269 273 277 280 287 279 269 273 281 288 295 303 304 302 305 308 312 307
165 164 165 170 172 177 190 199 198 204 201 206 214 215 218 229 225 223 215 217 220 234 234 221 212 225 238 247 253 254 259 267 272 276 287 298 303 304 305 308 305 307 305
164 169 170 170 173 176 185 222 239 230 234 240 238 233 233 242 251 247 246 244 242 241 234 217 214 217 227 234 241 253 257 262 271 282 289 293 299 304 307 307 306 306 306
169 168 164 166 169 176 180 192 225 248 244 247 251 255 255 257 259 259 257 256 254 249 242 223 215 217 223 228 233 242 255 262 272 280 285 290 297 300 302 305 309 310 308
146 149 152 157 159 166 175 183 188 200 235 263 268 271 274 274 273 273 271 268 259 247 226 214 214 216 219 224 231 241 255 267 272 276 280 285 290 295 300 303 307 309 310
133 129 126 125 129 136 142 152 171 201 230 256 277 289 287 289 287 281 279 269 256 240 222 216 213 215 219 222 228 236 246 257 265 271 276 279 285 292 297 301 305 306 308
112 118 117 119 120 125 135 151 175 205 237 256 263 267 275 284 274 277 272 271 266 257 236 220 213 212 217 222 226 233 245 254 262 264 271 277 283 288 295 301 304 307 308
112 113 115 116 127 138 146 165 188 214 240 254 259 273 279 270 267 265 256 253 252 251 244 233 222 217 219 220 223 230 240 251 254 259 267 275 282 288 293 296 299 303 307
111 118 123 127 131 139 149 168 201 234 250 263 268 284 293 293 278 273 271 268 256 244 235 230 231 227 222 220 219 225 236 247 251 254 263 273 281 285 290 294 300 307 310
113 124 127 129 134 145 163 209 230 241 251 258 267 269 271 269 271 272 273 273 268 256 238 231 241 246 239 231 223 222 233 243 242 242 260 274 279 280 285 292 298 306 310
120 131 140 149 160 179 207 227 235 241 248 254 259 262 263 262 263 267 269 270 267 258 244 238 241 247 247 244 238 234 238 245 244 242 244 256 267 274 279 284 291 298 304
130 141 155 172 191 210 228 239 244 248 251 254 257 259 261 261 263 265 265 265 264 260 255 248 248 250 252 249 246 244 249 256 256 244 242 248 256 262 267 275 283 295 303
166 177 192 205 217 226 233 242 248 251 253 255 256 257 259 261 263 265 265 265 264 263 262 257 252 252 254 255 254 255 255 255 251 242 233 240 248 255 259 264 277 286 297